Regional Weather Roundup
Issued by NWS Goodland, KS

Home | Current Version | Previous Version | Text Only | Print | Product List | Glossary On
Versions: 1 2 3 4 5 6 7 8 9 10 11 12 13 14 15 16 17 18 19 20 21 22 23 24 25 26 27 28 29 30 31 32 33 34 35 36 37 38 39 40 41 42 43 44 45 46 47 48 49 50
179
ASUS43 KGLD 290608
RWRGLD

GOODLAND FORECAST AREA HOURLY WEATHER ROUNDUP
NATIONAL WEATHER SERVICE GOODLAND KS
1200 AM MDT FRI APR 29 2016

...OFFICIAL OBSERVATIONS...

CITY           SKY/WX    TMP DP  RH WIND       PRES   REMARKS
GOODLAND KS    CLOUDY    42  38  85 E13       30.05F
HILL CITY KS   CLOUDY    46  42  86 NE9       30.08F
IMPERIAL NEB   CLOUDY    43  39  86 E7        30.11R
MCCOOK NEB     CLOUDY    44  39  82 NE6       30.11R
AKRON CO       CLOUDY    37  34  89 E10       30.07S
BURLINGTON CO  CLOUDY    41  36  82 NE16      30.04F
LIMON CO       LGT RAIN  35  34  96 NE12      30.04S
$$

...UNOFFICIAL OBSERVATIONS...

CITY           SKY/WX    TMP DP  RH WIND       PRES   REMARKS
COLBY KS       CLOUDY    43  43 100 NE10      30.09S
GOVE KS          N/A     47  32  56 MISG        N/A
LENORA KS        N/A     45  32  60 MISG        N/A
NORTON KS      CLOUDY    45  37  76 N9        30.08F
SHARON SPRINGS   N/A     44  41  89 NE15        N/A
KIT CARSON CO    N/A     42  37  81 MISG        N/A
YUMA CO          N/A     40  36  87 E6          N/A
$$




USA.gov is the U.S. government's official web portal to all federal, state and local government web resources and services.